Weather History for Slidell, LA

Change the Weather History Date:

Monday, October 14, 2013

  Actual Average (KNEW) Record (KNEW)
Temperature  
Mean Temperature 74 °F 72 °F  
Max Temperature 87 °F 81 °F 90 °F (2009)
Min Temperature 64 °F 63 °F 42 °F (1977)
Degree Days  
Heating Degree Days 0 1  
Month to date heating degree days 1  
Since 1 July heating degree days 1  
Cooling Degree Days 9 7  
Month to date cooling degree days 128  
Year to date cooling degree days 2817  
Growing Degree Days 24 (Base 50)    
Moisture  
Dew Point 63 °F    
Average Humidity 73    
Maximum Humidity 93    
Minimum Humidity 41    
Precipitation  
Precipitation 0.00 in 0.11 in 1.68 in (1985)
Month to date precipitation 1.54  
Year to date precipitation 50.72  
Snow  
Snow 0.00 in - - ()
Month to date snowfall  
Since 1 July snowfall  
Since 1 September snowfall  
Snow Depth -    
Sea Level Pressure  
Sea Level Pressure 30.07 in    
Wind  
Wind Speed 2 mph (ESE)    
Max Wind Speed 8 mph    
Max Gust Speed -    
Visibility 9 miles    
Events      
T = Trace of Precipitation, MM = Missing Value Source: NWS Daily Summary

Daily Weather History Graph

Daily Weather History Graph

Search for Another Location

Airport:

Trip Planner

Search our weather history database for the weather conditions in past years. The results will help you decide how hot, cold, wet, or windy it might be!

Date:

Astronomy

Oct. 14, 2013 Rise Set
Actual Time 7:00 AM CDT 6:29 PM CDT
Civil Twilight 6:36 AM CDT 6:53 PM CDT
Nautical Twilight 6:08 AM CDT 7:21 PM CDT
Astronomical Twilight 5:41 AM CDT 7:48 PM CDT
Moon 3:42 PM CDT (10/14) 2:35 AM CDT (10/14)
Length of Visible Light 12h 16m
Length of Day
11h 28m
Waxing Gibbous, 79% of the Moon is Illuminated
Oct 14
Waxing Gibbous
Oct 18
Full
Oct 26
Last Quarter
Nov 3
New
Nov 9
First Quarter

Hourly Weather History & Observations

Time (CDT) Temp. Heat Index Dew Point Humidity Pressure Visibility Wind Dir Wind Speed Gust Speed Precip Events Conditions
12:53 AM 69.1 °F - 66.0 °F 90% 30.10 in 9.0 mi Calm Calm - N/A   Clear
1:53 AM 68.0 °F - 64.9 °F 90% 30.10 in 10.0 mi Calm Calm - N/A   Clear
2:53 AM 66.9 °F - 64.9 °F 93% 30.09 in 7.0 mi Calm Calm - N/A   Clear
3:53 AM 66.0 °F - 64.0 °F 93% 30.09 in 9.0 mi Calm Calm - N/A   Clear
4:53 AM 66.0 °F - 63.0 °F 90% 30.09 in 8.0 mi Calm Calm - N/A   Clear
5:53 AM 64.9 °F - 62.1 °F 90% 30.11 in 7.0 mi Calm Calm - N/A   Clear
6:53 AM 64.9 °F - 62.1 °F 90% 30.12 in 9.0 mi Calm Calm - N/A   Clear
7:53 AM 66.0 °F - 63.0 °F 90% 30.11 in 7.0 mi Calm Calm - N/A   Clear
8:53 AM 72.0 °F - 66.9 °F 84% 30.12 in 9.0 mi NNE 3.5 mph - N/A   Clear
9:53 AM 77.0 °F - 64.9 °F 66% 30.11 in 10.0 mi ENE 5.8 mph - N/A   Clear
10:53 AM 81.0 °F 82.2 °F 63.0 °F 54% 30.11 in 10.0 mi East 6.9 mph - N/A   Clear
11:53 AM 82.9 °F 83.7 °F 62.1 °F 49% 30.10 in 10.0 mi Calm Calm - N/A   Clear
12:53 PM 84.0 °F 84.0 °F 60.1 °F 44% 30.07 in 10.0 mi Variable 5.8 mph - N/A   Clear
1:53 PM 84.9 °F 84.4 °F 59.0 °F 41% 30.04 in 10.0 mi South 5.8 mph - N/A   Clear
2:53 PM 84.9 °F 84.4 °F 59.0 °F 41% 30.02 in 10.0 mi ESE 3.5 mph - N/A   Partly Cloudy
3:53 PM 84.9 °F 84.8 °F 60.1 °F 43% 30.01 in 10.0 mi ESE 5.8 mph - N/A   Clear
4:53 PM 82.9 °F 83.3 °F 61.0 °F 47% 30.02 in 10.0 mi SSE 8.1 mph - N/A   Clear
5:53 PM 81.0 °F 81.7 °F 61.0 °F 50% 30.03 in 10.0 mi SE 6.9 mph - N/A   Clear
6:53 PM 73.9 °F - 64.0 °F 71% 30.03 in 8.0 mi SE 3.5 mph - N/A   Clear
7:53 PM 71.1 °F - 64.9 °F 81% 30.04 in 10.0 mi Calm Calm - N/A   Clear
8:53 PM 69.1 °F - 64.9 °F 87% 30.04 in 10.0 mi Calm Calm - N/A   Clear
9:53 PM 66.9 °F - 64.0 °F 90% 30.04 in 10.0 mi Calm Calm - N/A   Clear
10:53 PM 66.9 °F - 63.0 °F 87% 30.05 in 10.0 mi Calm Calm - N/A   Clear
11:53 PM 66.0 °F - 63.0 °F 90% 30.03 in 10.0 mi Calm Calm - N/A   Clear